Powrót do katalogu

ONEWEB-0709

AktywnyŁącznośćPO
NORAD 55172·PAYLOAD·🇬🇧 United Kingdom

Wystrzelony Jan 10, 2023 z Cape Canaveral Space Force Station

Loading…

Następne Przeloty (najbliższe 24 godziny)

TLE

ŚwieżeSource: CelesTrak SupGP

Epoka: Sep 14, 2026, 22:49 UTC

1 55172C 23004AJ  26257.95118056 -.00002564  00000+0 -72443-2 0  2573
2 55172  87.8956   3.2301 0001057  81.3633  21.7963 13.11414411    11

Śledź ONEWEB-0709 w czasie rzeczywistym z AllMySat

Download on the App Store